Location: Caltech
(34.1382°N, 118.1253°W)
Time: 21:56:28
(UTC-07:00)

PCSat - Visible Passes

Search period start: 25 August 2016 00:00
Search period end: 04 September 2016 00:00
Orbit: 786 x 794 km, 67.1° (Epoch: 25 August)

Date Brightness Start Highest point End Pass type
(mag) Time Alt. Az. Time Alt. Az. Time Alt. Az.
25 Aug 11.7 20:25:16 10° NNE 20:26:48 11° NE 20:28:20 10° ENE visible
25 Aug 10.1 22:05:34 10° NNW 22:09:43 53° NNW 22:09:43 53° NNW visible
26 Aug 9.7 21:34:48 10° NNW 21:39:51 57° NE 21:39:51 57° NE visible
26 Aug 12.3 23:20:00 10° WNW 23:20:35 12° WNW 23:20:35 12° WNW visible
27 Aug 10.0 21:04:09 10° N 21:09:16 41° ENE 21:10:02 39° E visible
27 Aug 11.7 22:48:15 10° WNW 22:50:46 19° W 22:50:46 19° W visible
28 Aug 10.6 20:33:35 10° N 20:38:19 30° ENE 20:40:18 24° E visible
28 Aug 11.0 22:16:54 10° NW 22:21:02 31° W 22:21:02 31° W visible
29 Aug 11.0 20:03:10 10° N 20:07:20 22° NE 20:10:37 13° E visible
29 Aug 10.3 21:45:46 10° NW 21:50:54 45° WSW 21:51:22 44° SW visible
30 Aug 9.8 21:14:46 10° NNW 21:20:08 66° WSW 21:21:47 43° S visible
31 Aug 9.5 20:43:53 10° NNW 20:49:20 88° ENE 20:52:17 28° SSE visible
01 Sep 9.6 20:13:06 10° NNW 20:18:30 62° ENE 20:22:54 15° SE visible
01 Sep 12.0 21:58:34 10° WNW 22:01:16 14° WSW 22:03:40 11° SW visible
02 Sep 10.0 19:42:26 10° NNW 19:47:36 44° ENE 19:52:44 10° SE visible
02 Sep 11.7 21:26:42 10° WNW 21:30:37 21° WSW 21:34:25 10° SSW visible
03 Sep 11.3 20:55:18 10° NW 20:59:57 29° WSW 21:04:33 10° SSW visible
